Location: Poughquag
(41.6090°N, 73.6820°W)
Time: 18:51:36
(UTC-04:00)

MOZHAYETS 4 - Pass Details

Date: 22 August 2024
Orbit: 650 x 668 km, 98.3° (Epoch: 15 September)

Event Time Altitude Azimuth Distance (km) Brightness Sun altitude
Rises 03:03:47 0° 118° (ESE) 3,006 11.2 -29.4°
Reaches altitude 10° 03:06:57 10° 94° (E) 2,097 10.6 -29.0°
Maximum altitude 03:09:21 14° 62° (ENE) 1,825 10.7 -28.8°
Drops below altitude 10° 03:11:45 10° 30° (NNE) 2,102 11.2 -28.5°
Sets 03:14:56 0° 6° (N) 3,019 11.9 -28.1°
